Flag for Russia Weather past 2 weeks in Astrakhan, Russia

Now
54 °F

Scattered clouds.


Feels Like: 49 °F
Forecast: 37 / 53 °F
Wind: 17 mph from Northwest

Location: Astrakhan

Current Time: Oct 2, 2014 at 5:03:22 PM

Latest Report: Oct 2, 2014 at 4:30 PM


Visibility: N/A

Pressure: 30.21 "Hg

Humidity: 44%

Dew point: 32 °F

Location of AstrakhanLocation

Historic Weather in Astrakhan — Graph

°F

Astrakhan temperature yesterday

Maximum temperature yesterday: 70 °F (at 2:30 PM)
Minimum temperature yesterday: 52 °F (at 11:30 PM)
Average temperature yesterday: 59 °F

Past Weeks' High & Low Weather Summary

 TemperatureHumidityPressure
High73 °F (Sep 27, 2:30 PM)100% (Sep 27, 7:30 AM)30.39 "Hg (Sep 27, 7:30 AM)
Low43 °F (Sep 28, 7:00 AM)17% (Sep 17, 6:00 PM)29.59 "Hg (Sep 24, 11:00 AM)
Average57 °F60%30.04 "Hg
* Reported Sep 17 3:00 PM — Oct 2 3:30 PM, Astrakhan, Weather by CustomWeather, © 2014

Note: Actual official high and low records may vary slightly from our data, if they occured in-between our weather recording intervals... More about our weather records

Advertising

Astrakhan weather history for previous 24 hours

 ConditionsComfort  
Time TempWeatherWind HumidityBarometerVisibility
3:30 PM
Oct 2
54 °FScattered clouds.20 mph44%30.21 "HgN/A
3:00 PM54 °FScattered clouds.22 mph44%30.21 "HgN/A
2:30 PM52 °FScattered clouds.22 mph47%30.21 "HgN/A
2:00 PM54 °FScattered clouds.22 mph44%30.21 "HgN/A
1:30 PM54 °FScattered clouds.22 mph44%30.21 "HgN/A
1:00 PM52 °FScattered clouds.22 mph50%30.21 "HgN/A
12:30 PM54 °FScattered clouds.20 mph47%30.21 "HgN/A
12:00 PM52 °FScattered clouds.22 mph54%30.21 "HgN/A
11:30 AM52 °FScattered clouds.17 mph54%30.21 "HgN/A
11:00 AM52 °FSunny.17 mph54%30.21 "Hg10 mi
10:30 AM50 °FSunny.17 mph62%30.21 "Hg10 mi
10:00 AM48 °FSunny.15 mph66%30.21 "Hg10 mi
9:30 AM48 °FSunny.13 mph66%30.21 "Hg10 mi
9:00 AM46 °FScattered clouds.13 mph76%30.21 "HgN/A
8:30 AM45 °FSunny.10 mph76%30.18 "Hg10 mi
8:00 AM43 °FSunny.13 mph81%30.18 "Hg10 mi
7:30 AM43 °FClear.10 mph81%30.18 "Hg10 mi
7:00 AM43 °FClear.10 mph81%30.15 "Hg10 mi
6:30 AM43 °FClear.10 mph81%30.15 "Hg10 mi
6:00 AM43 °FClear.10 mph81%30.12 "Hg10 mi
5:30 AM43 °FClear.8 mph81%30.12 "Hg10 mi
5:00 AM45 °FClear.10 mph81%30.12 "Hg10 mi
4:30 AM45 °FClear.10 mph81%30.09 "Hg10 mi
4:00 AM45 °FClear.10 mph87%30.09 "Hg10 mi
3:30 AM46 °FClear.8 mph82%30.09 "Hg10 mi
3:00 AM46 °FClear.8 mph82%30.07 "Hg10 mi
2:30 AM48 °FClear.8 mph82%30.07 "Hg10 mi
2:00 AM48 °FClear.10 mph82%30.07 "Hg10 mi
1:30 AM48 °FClear.10 mph82%30.04 "Hg10 mi
1:00 AM50 °FPassing clouds.13 mph82%30.04 "HgN/A
12:30 AM50 °FPassing clouds.13 mph82%30.01 "HgN/A
12:00 AM52 °FPassing clouds.13 mph82%30.01 "HgN/A
11:30 PM
Oct 1
52 °FPassing clouds.17 mph82%30.01 "HgN/A
11:00 PM54 °FPartly cloudy.13 mph82%29.98 "HgN/A
10:30 PM54 °FSprinkles. Mostly cloudy.13 mph88%29.98 "HgN/A
10:00 PM55 °FSprinkles. Mostly cloudy.15 mph82%29.98 "HgN/A
9:30 PM57 °FSprinkles. Mostly cloudy.13 mph88%29.95 "Hg5 mi
9:00 PM57 °FMostly cloudy.10 mph88%29.95 "Hg5 mi
8:30 PM57 °FMostly cloudy.10 mph88%29.95 "Hg5 mi
8:00 PM55 °FLight rain. Mostly cloudy.8 mph94%29.92 "Hg5 mi
7:30 PM55 °FSprinkles. Mostly cloudy.10 mph94%29.92 "HgN/A
7:00 PM57 °FSprinkles. Mostly cloudy.10 mph88%29.92 "HgN/A
6:30 PM57 °FSprinkles. Partly sunny.13 mph88%29.89 "Hg5 mi
6:00 PM57 °FPartly sunny.20 mph88%29.89 "HgN/A
5:30 PM66 °FPartly sunny.17 mph56%29.86 "HgN/A
5:00 PM68 °FBroken clouds.22 mph53%29.86 "HgN/A
Weather by CustomWeather, © 2014

See weather overviewHow to use our weather pages